When you browse on this site, cookies collect data to enhance your experience and personalize the content and advertising you see.
Visit our Privacy Policy to learn more. By continuing to use the site, you agree to this use of cookies and data.
  • In United Kingdom
  • List of Countries
  • For 7 days
  • Water Temperature
  • Weather Map
  • Weather Widgets
  • user-avatar
    Login

    Hourly Weather Gölhisar

    Today, 26 August, Monday

    Time Temperature Precipitation Wind Pressure Humidity
    00:00 +23°C° 0 mm 1 mps 673 mmHg 50%
    01:00 +22°C° 0 mm 1 mps 673 mmHg 50%
    02:00 +22°C° 0 mm 1 mps 673 mmHg 51%
    03:00 +22°C° 0 mm 1 mps 673 mmHg 52%
    04:00 +22°C° 0 mm 1 mps 673 mmHg 53%
    05:00 +20°C° 0 mm 2 mps 673 mmHg 54%
    06:00 +23°C° 0 mm 2 mps 673 mmHg 49%
    07:00 +25°C° 0 mm 2 mps 674 mmHg 44%
    08:00 +27°C° 0 mm 3 mps 674 mmHg 39%
    09:00 +29°C° 0 mm 3 mps 675 mmHg 34%
    10:00 +30°C° 0 mm 3 mps 675 mmHg 29%
    11:00 +32°C° 0 mm 4 mps 676 mmHg 25%
    12:00 +33°C° 0 mm 3 mps 675 mmHg 23%
    13:00 +34°C° 0 mm 3 mps 675 mmHg 21%
    14:00 +34°C° 0 mm 3 mps 675 mmHg 19%
    15:00 +34°C° 0 mm 3 mps 675 mmHg 20%
    16:00 +34°C° 0 mm 3 mps 675 mmHg 21%
    17:00 +34°C° 0 mm 3 mps 675 mmHg 21%
    18:00 +30°C° 0 mm 2 mps 674 mmHg 29%
    19:00 +28°C° 0 mm 2 mps 674 mmHg 36%
    20:00 +25°C° 0 mm 2 mps 673 mmHg 44%
    21:00 +25°C° 0 mm 1 mps 673 mmHg 46%
    22:00 +24°C° 0 mm 1 mps 673 mmHg 48%
    23:00 +23°C° 0 mm 1 mps 673 mmHg 51%

    Tomorrow, 27 August, Tuesday

    Time Temperature Precipitation Wind Pressure Humidity
    00:00 +23°C° 0 mm 1 mps 673 mmHg 52%
    01:00 +22°C° 0 mm 1 mps 673 mmHg 53%
    02:00 +22°C° 0 mm 1 mps 673 mmHg 54%
    03:00 +22°C° 0 mm 1 mps 673 mmHg 54%
    04:00 +21°C° 0 mm 1 mps 673 mmHg 55%
    05:00 +21°C° 0 mm 1 mps 672 mmHg 56%
    06:00 +23°C° 0 mm 1 mps 673 mmHg 49%
    07:00 +26°C° 0 mm 1 mps 674 mmHg 43%
    08:00 +28°C° 0 mm 1 mps 674 mmHg 36%
    09:00 +29°C° 0 mm 1 mps 675 mmHg 32%
    10:00 +31°C° 0 mm 1 mps 675 mmHg 27%
    11:00 +32°C° 0 mm 2 mps 675 mmHg 23%
    12:00 +34°C° 0 mm 2 mps 675 mmHg 22%
    13:00 +34°C° 0 mm 2 mps 675 mmHg 21%
    14:00 +34°C° 0 mm 3 mps 675 mmHg 21%
    15:00 +34°C° 0 mm 3 mps 675 mmHg 22%
    16:00 +34°C° 0 mm 3 mps 675 mmHg 23%
    17:00 +33°C° 0 mm 4 mps 674 mmHg 24%
    18:00 +30°C° 0 mm 3 mps 674 mmHg 30%
    19:00 +27°C° 0 mm 2 mps 674 mmHg 36%
    20:00 +25°C° 0 mm 1 mps 673 mmHg 43%
    21:00 +24°C° 0 mm 1 mps 673 mmHg 45%
    22:00 +23°C° 0 mm 1 mps 673 mmHg 48%
    23:00 +21°C° 0 mm 0 mps 673 mmHg 50%

    Day after tomorrow, 28 August, Wednesday

    Time Temperature Precipitation Wind Pressure Humidity
    00:00 +22°C° 0 mm 1 mps 673 mmHg 50%
    01:00 +22°C° 0 mm 1 mps 673 mmHg 51%
    02:00 +22°C° 0 mm 1 mps 672 mmHg 51%
    03:00 +21°C° 0 mm 1 mps 672 mmHg 51%
    04:00 +21°C° 0 mm 1 mps 672 mmHg 52%
    05:00 +21°C° 0 mm 1 mps 672 mmHg 52%
    06:00 +23°C° 0 mm 1 mps 673 mmHg 45%
    07:00 +25°C° 0 mm 1 mps 673 mmHg 38%
    08:00 +28°C° 0 mm 1 mps 674 mmHg 31%
    09:00 +29°C° 0 mm 2 mps 674 mmHg 27%
    10:00 +31°C° 0 mm 2 mps 674 mmHg 24%
    11:00 +32°C° 0 mm 2 mps 674 mmHg 20%
    12:00 +32°C° 0 mm 2 mps 674 mmHg 20%
    13:00 +34°C° 0 mm 2 mps 674 mmHg 19%
    14:00 +34°C° 0 mm 2 mps 674 mmHg 19%
    15:00 +34°C° 0 mm 3 mps 674 mmHg 20%
    16:00 +33°C° 0 mm 3 mps 674 mmHg 21%
    17:00 +33°C° 0 mm 4 mps 673 mmHg 23%
    18:00 +29°C° 0 mm 3 mps 673 mmHg 28%
    19:00 +27°C° 0 mm 2 mps 673 mmHg 33%
    20:00 +25°C° 0 mm 1 mps 672 mmHg 39%
    21:00 +24°C° 0 mm 1 mps 672 mmHg 42%
    22:00 +23°C° 0 mm 1 mps 672 mmHg 45%
    23:00 +20°C° 0 mm 0 mps 672 mmHg 47%

    29 August, Thursday

    Time Temperature Precipitation Wind Pressure Humidity
    00:00 +20°C° 0 mm 0 mps 672 mmHg 48%
    01:00 +20°C° 0 mm 0 mps 672 mmHg 49%
    02:00 +21°C° 0 mm 1 mps 671 mmHg 49%
    03:00 +21°C° 0 mm 1 mps 671 mmHg 50%
    04:00 +20°C° 0 mm 1 mps 671 mmHg 50%
    05:00 +20°C° 0 mm 1 mps 671 mmHg 50%
    06:00 +23°C° 0 mm 1 mps 672 mmHg 44%
    07:00 +25°C° 0 mm 1 mps 672 mmHg 37%
    08:00 +27°C° 0 mm 1 mps 673 mmHg 31%
    09:00 +29°C° 0 mm 1 mps 673 mmHg 28%
    10:00 +30°C° 0 mm 1 mps 674 mmHg 24%
    11:00 +32°C° 0 mm 1 mps 674 mmHg 21%
    12:00 +32°C° 0 mm 1 mps 674 mmHg 22%
    13:00 +32°C° 0 mm 2 mps 673 mmHg 22%
    14:00 +31°C° 0 mm 3 mps 673 mmHg 23%
    15:00 +31°C° 0 mm 3 mps 673 mmHg 26%
    16:00 +30°C° 0 mm 3 mps 672 mmHg 29%
    17:00 +29°C° 0 mm 3 mps 672 mmHg 32%
    18:00 +27°C° 0 mm 2 mps 672 mmHg 36%
    19:00 +26°C° 0 mm 1 mps 672 mmHg 40%
    20:00 +24°C° 0 mm 1 mps 672 mmHg 44%
    21:00 +24°C° 0 mm 1 mps 672 mmHg 46%
    22:00 +23°C° 0 mm 1 mps 672 mmHg 48%
    23:00 +22°C° 0 mm 1 mps 671 mmHg 49%

    30 August, Friday

    Time Temperature Precipitation Wind Pressure Humidity
    00:00 +22°C° 0 mm 1 mps 671 mmHg 50%
    01:00 +21°C° 0 mm 1 mps 671 mmHg 50%
    02:00 +21°C° 0 mm 1 mps 671 mmHg 51%
    03:00 +20°C° 0 mm 1 mps 670 mmHg 52%
    04:00 +20°C° 0 mm 1 mps 670 mmHg 54%
    05:00 +19°C° 0 mm 1 mps 670 mmHg 55%
    06:00 +22°C° 0 mm 1 mps 671 mmHg 48%
    07:00 +24°C° 0 mm 1 mps 672 mmHg 41%
    08:00 +27°C° 0 mm 1 mps 672 mmHg 34%
    09:00 +28°C° 0 mm 1 mps 673 mmHg 30%
    10:00 +30°C° 0 mm 1 mps 673 mmHg 26%
    11:00 +31°C° 0 mm 1 mps 673 mmHg 22%
    12:00 +32°C° 0 mm 1 mps 673 mmHg 22%
    13:00 +32°C° 0 mm 2 mps 673 mmHg 21%
    14:00 +33°C° 0 mm 3 mps 673 mmHg 20%
    15:00 +33°C° 0 mm 3 mps 673 mmHg 23%
    16:00 +31°C° 0 mm 3 mps 672 mmHg 25%
    17:00 +30°C° 0 mm 4 mps 672 mmHg 27%
    18:00 +29°C° 0 mm 3 mps 672 mmHg 31%
    19:00 +27°C° 0 mm 2 mps 672 mmHg 35%
    20:00 +26°C° 0 mm 1 mps 672 mmHg 39%
    21:00 +25°C° 0 mm 1 mps 672 mmHg 42%
    22:00 +24°C° 0 mm 1 mps 672 mmHg 45%
    23:00 +23°C° 0 mm 1 mps 672 mmHg 48%

    31 August, Saturday

    Time Temperature Precipitation Wind Pressure Humidity
    00:00 +22°C° 0 mm 1 mps 671 mmHg 49%
    01:00 +21°C° 0 mm 1 mps 671 mmHg 50%
    02:00 +21°C° 0 mm 1 mps 671 mmHg 50%
    03:00 +20°C° 0 mm 1 mps 671 mmHg 52%
    04:00 +20°C° 0 mm 1 mps 670 mmHg 53%
    05:00 +19°C° 0 mm 1 mps 670 mmHg 54%
    06:00 +21°C° 0 mm 1 mps 671 mmHg 49%
    07:00 +24°C° 0 mm 1 mps 671 mmHg 43%
    08:00 +26°C° 0 mm 1 mps 672 mmHg 37%
    09:00 +27°C° 0 mm 1 mps 673 mmHg 33%
    10:00 +29°C° 0 mm 1 mps 673 mmHg 29%
    11:00 +31°C° 0 mm 1 mps 673 mmHg 26%
    12:00 +31°C° 0 mm 1 mps 673 mmHg 25%
    13:00 +32°C° 0 mm 2 mps 673 mmHg 24%
    14:00 +32°C° 0 mm 2 mps 673 mmHg 23%
    15:00 +31°C° 0 mm 2 mps 673 mmHg 25%
    16:00 +31°C° 0 mm 2 mps 673 mmHg 27%
    17:00 +30°C° 0 mm 2 mps 673 mmHg 29%
    18:00 +29°C° 0 mm 2 mps 673 mmHg 33%
    19:00 +27°C° 0 mm 2 mps 673 mmHg 36%
    20:00 +26°C° 0 mm 1 mps 673 mmHg 40%
    21:00 +24°C° 0 mm 1 mps 672 mmHg 44%
    22:00 +23°C° 0 mm 1 mps 672 mmHg 47%
    23:00 +20°C° 0 mm 0 mps 672 mmHg 51%
    Show more